User: anonymous   Login
Location: Misciano
(43.5000°N, 11.9500°E)
Time: 17:58:00
(UTC+00:00)
Language:

Sich 1 - Orbit

View from above orbital plane
View from above orbital plane
View from above satellite
View from above satellite

Ground track
Ground track

The orbit data is extracted from the following two-line orbital elements,

1 23657U 95046A   20298.44701079  .00000249  00000-0  25447-4 0  9991
2 23657  82.5296 189.4385 0021899 349.1460  10.9281 14.86194547359446
Epoch (UTC): 24 October 2020 10:43:41
Eccentricity: 0.0021899
inclination: 82.5296°
perigee height: 594 km
apogee height: 625 km
right ascension of ascending node: 189.4385°
argument of perigee: 349.1460°
revolutions per day: 14.86194547
mean anomaly at epoch: 10.9281°
orbit number at epoch: 35944

The dashed part of the orbit path shows where the satellite is in the earth's shadow,  

DLR